الصفحة الرئيسية
METAR-TAF:

METAR-TAF

مطار :

Emerald, أستراليا

دائرة عرض: 23-34-03S, خط طول: 148-10-45E, ارتفاع: 190 متر

مراقبة الطقس الحالي

تاريخ ووقت الإصدار 41 دقيقة قبل الساعة 03:00UTC
ريح 3 عقدة من الغرب
درجة الحرارة 18°درجة مئوية
الرطوبة 32%
ضغط 1018 hPa
الرؤية 10 كم أو أكثر

METAR: YEML 190300Z AUTO 26003KT 9999 // NCD 18/01 Q1018

زمن: 13:41 (03:41 UTC)


TAF: مفقودة

أرصاد الطقس والتوقعات من أكثر من 4000 مطار (تقارير الطقس للمطار METAR والتنبؤ بالطقس بالمطارTAF).

المحطات المتاحة هي النقط الصفراء والحمراء على الخريطة.

حرك المؤشر فوق النقطة لمعرفة اسم المحطة.

ثم انقر لمعرفة أرصاد وتوقعات الطقس.

لتغيير الخارطة: اضغط على الأزرار الخضراء مع رمز الصليب الأسود للتكبير. على الزر الأخضر مع شرطة للتصغير، أو على الأسهم الخضراء للخرائط المجاورة.


METAR-TAF: